Lid_Strength_Index
4 4 4 4 5 5 8 11 16 13 13 17 17 18 19 18 19 18 19 19 20 21 21 22 22 22 22 20 21 24 23 29 30 29 30 28 30 31 31 34 35 33 34 29
5 4 5 5 5 6 11 13 13 11 13 19 18 19 19 18 19 19 19 20 19 19 21 23 21 22 20 20 22 24 23 28 32 31 31 26 30 31 32 34 34 36 35 29
5 5 5 5 5 6 10 13 15 13 14 17 19 19 20 20 19 19 19 19 19 21 21 20 23 21 21 20 21 19 21 25 27 29 27 25 29 28 31 33 35 35 30 28
4 5 5 5 5 6 10 13 15 16 18 18 19 18 19 20 20 19 19 20 20 20 22 22 23 21 21 21 20 21 23 30 26 25 23 23 24 24 29 32 33 32 32 31
5 5 6 5 6 7 11 15 16 15 17 18 20 18 20 20 20 20 20 21 19 20 21 21 24 23 22 23 22 23 23 30 25 26 22 23 25 23 24 28 32 29 27 27
4 5 5 5 6 8 12 12 13 14 15 18 19 18 18 19 20 18 18 19 19 20 19 20 21 21 20 22 23 24 25 27 27 29 23 24 27 25 23 26 28 29 30 27
4 5 6 6 6 9 11 12 12 13 16 18 18 18 18 19 19 20 19 19 19 19 19 20 21 22 21 22 22 22 25 27 26 30 27 33 24 23 22 23 23 24 23 22
3 5 5 6 6 8 11 11 11 12 16 15 16 17 19 19 19 20 20 19 19 18 20 22 23 24 24 23 23 24 24 28 31 33 31 25 24 24 26 27 25 22 22 20
3 4 5 6 7 8 10 11 11 12 15 16 17 18 19 20 20 21 20 19 18 19 20 21 25 24 24 26 26 24 23 26 30 29 33 30 26 24 23 23 28 21 21 21
2 4 4 5 6 8 9 11 11 12 15 14 18 19 17 18 19 19 21 22 21 19 21 22 23 23 24 26 27 29 28 29 31 30 30 26 23 23 23 28 24 21 21 21
1 3 4 5 6 7 9 10 10 12 14 13 15 16 19 19 18 18 21 22 21 22 22 22 20 23 24 26 24 26 27 29 29 27 30 31 23 25 27 23 23 22 22 21
2 2 3 3 5 6 7 11 10 11 14 14 14 15 15 16 16 16 19 20 21 19 21 20 21 22 25 25 26 24 28 24 25 25 25 23 23 25 24 26 25 24 24 22
1 2 2 3 4 5 7 9 11 12 14 14 15 16 15 15 16 15 18 18 19 20 20 20 21 24 23 26 25 24 25 27 27 27 24 22 20 22 24 24 25 25 25 25
0 1 2 3 3 4 6 9 10 11 12 18 16 14 16 14 15 16 16 18 20 21 20 22 22 22 21 24 23 24 24 25 28 26 22 21 21 21 23 23 24 26 26 26
1 2 3 3 3 4 6 9 9 10 13 16 17 16 16 15 15 15 17 18 19 20 23 23 24 21 23 23 26 26 24 25 25 24 23 23 24 28 28 27 27 28 28 28
2 3 3 3 3 6 9 11 12 11 11 14 18 17 18 17 17 17 17 18 19 18 20 21 21 24 24 26 25 22 22 24 22 22 27 27 28 27 28 28 28 29 29 27
3 3 3 4 4 7 10 11 11 9 10 14 17 17 17 16 16 17 18 18 19 19 20 22 21 23 23 25 27 22 21 20 20 23 25 22 24 25 30 30 31 29 30 27
3 4 4 4 4 7 9 10 8 9 12 14 20 18 19 17 20 19 17 20 20 20 22 21 22 23 23 26 22 21 21 22 21 21 23 21 25 27 30 33 32 31 28 26
4 4 5 7 9 11 11 9 8 10 13 17 18 21 20 18 19 19 19 18 22 21 23 22 23 23 25 23 22 21 19 21 21 21 22 24 25 24 26 27 29 28 27 26
4 6 9 11 10 8 9 12 14 15 15 15 19 16 21 20 19 20 20 22 22 27 24 22 25 25 21 20 19 18 18 18 20 22 22 24 24 23 23 23 23 24 24 24
7 10 11 11 8 11 12 15 18 18 22 18 18 19 21 18 22 20 19 22 22 29 26 27 25 24 21 18 19 18 17 17 18 19 19 19 21 22 21 20 20 22 22 22
8 9 9 10 12 13 17 18 17 20 20 15 18 18 18 19 19 20 23 23 25 29 25 28 28 21 18 18 18 18 18 19 18 18 19 19 19 20 20 20 20 20 20 21
9 10 12 14 15 21 20 19 18 17 16 17 18 18 17 19 19 21 22 26 26 25 31 28 22 17 17 17 17 17 17 17 17 17 18 18 18 18 19 19 19 21 22 22
11 12 16 16 19 18 16 16 15 13 12 12 14 14 16 15 19 19 20 21 24 28 31 23 18 16 16 16 16 17 15 14 14 15 15 16 17 18 19 19 21 23 24 23
12 12 17 16 13 14 14 13 12 10 11 12 14 14 15 16 19 18 19 24 28 25 22 15 15 16 15 14 13 13 13 14 15 15 15 17 18 19 20 20 22 23 22 22
11 11 12 12 15 13 14 13 10 10 12 11 12 14 16 16 17 20 24 24 24 21 17 16 15 15 15 14 12 13 13 14 15 16 18 18 19 20 22 22 23 23 22 23
13 12 9 9 11 11 10 9 9 10 12 14 12 15 16 15 17 21 18 21 17 16 15 13 14 15 13 13 13 13 14 15 16 18 19 20 21 22 23 24 23 23 22 22